[[{"header":{"parameterUnit":"m.s-1","parameterCategory":1,"la1":30.2991,"la2":30.254,"lo1":-89.0895,"lo2":-89.0444,"dy":0.0017,"dx":0.0017,"nx":28,"ny":28,"refTime":"2024-05-07T09:00:00:Z","depth":0,"parameterNumber":2,"parameterNumberName":"U-component_of_WINDS"},"data":[0,0,0,0,0,0,0,0,0,0,0,0,0,0,0,0,0,0,0,0,0,0,0,0,0,0,0,0,0,0,0,0,0,0,0,0,0,0,0,0,0,0,0,0,0,0,0,0,0,0,0,0,0,0,0,0,0,0,-0.1973,-0.1973,0,-0.1976,-0.1977,-0.1977,-0.1995,-0.1995,-0.1996,-0.1996,-0.2,-0.2,-0.1999,0,0,0,0,0,0,0,0,0,0,0,0,0,-0.1985,-0.1984,-0.1973,-0.1973,-0.1973,-0.1976,-0.1977,-0.1977,-0.1995,-0.1995,-0.1996,-0.1996,-0.2,-0.2,-0.1999,0,0,0,0,0,0,0,0,0,0,0,0,0,-0.1983,-0.1984,-0.1973,-0.1983,-0.1984,-0.1976,-0.1977,-0.1977,-0.1995,-0.1995,-0.1996,-0.1997,-0.2,-0.2,-0.1999,-0.1983,0,0,-0.1998,-0.1997,0,0,0,0,0,0,0,0,-0.1983,-0.1982,-0.1981,-0.1982,-0.1983,-0.1986,-0.1982,-0.1979,-0.1995,-0.1991,-0.1996,-0.1997,-0.1995,-0.1995,-0.1994,-0.1983,-0.1983,-0.1998,-0.1997,-0.1997,-0.1997,0,0,0,0,0,0,0,-0.1983,-0.1982,-0.1975,-0.1981,-0.1982,-0.1988,-0.1988,-0.1981,-0.1989,-0.1991,-0.1992,-0.1992,-0.1995,-0.1994,-0.1994,-0.1983,-0.1998,-0.1997,-0.1997,-0.1997,-0.1961,-0.196,0,0,0,0,0,0,-0.1982,-0.1982,-0.1974,-0.1975,-0.1985,-0.1987,-0.1987,-0.1984,-0.1989,-0.199,-0.1992,-0.1993,-0.1995,-0.1995,-0.1994,-0.1977,-0.1997,-0.1997,-0.1996,-0.1962,-0.1961,-0.196,0,0,0,0,0,0,-0.1982,-0.1981,-0.1974,-0.1979,-0.1978,-0.1986,-0.1982,-0.1984,-0.1983,-0.199,-0.1991,-0.1989,-0.1995,-0.1995,-0.1986,-0.1977,-0.1996,-0.1996,-0.1963,-0.1962,-0.1961,-0.1941,0,0,0,0,0,0,-0.1982,-0.1981,-0.1974,-0.1979,-0.1978,-0.1965,-0.1982,-0.1984,-0.1982,-0.1984,-0.1988,-0.1989,-0.1996,-0.1987,-0.1985,-0.1977,-0.1996,-0.1963,-0.1962,-0.1961,-0.1942,-0.1939,-0.1936,0,0,0,0,0,-0.1982,-0.1968,-0.1974,-0.1973,-0.197,-0.1965,-0.1965,-0.1973,-0.1981,-0.1975,-0.198,-0.1989,-0.1978,-0.1985,-0.1984,-0.1975,-0.1964,-0.1962,-0.1961,-0.1943,-0.194,-0.1937,0,0,0,0,0,0,-0.1962,-0.1969,-0.1975,-0.1962,-0.1963,-0.1968,-0.196,-0.1968,-0.1967,-0.1969,-0.1979,-0.1979,-0.1969,-0.1971,-0.1979,-0.1961,-0.1973,-0.1971,-0.196,-0.1956,-0.1953,-0.1953,-0.1995,0,0,0,0,0,-0.1956,-0.1951,-0.1957,-0.1945,-0.1945,-0.1953,-0.1951,-0.1957,-0.1958,-0.1959,-0.1963,-0.1964,-0.1961,-0.1959,-0.1956,-0.1943,-0.1944,-0.1936,-0.1933,-0.1931,-0.1929,-0.1924,-0.192,-0.1955,-0.1955,-0.1955,0,0,-0.1944,-0.1947,-0.1943,-0.1941,-0.1942,-0.1938,-0.1953,-0.1947,-0.1943,-0.1958,-0.195,-0.1953,-0.1955,-0.1944,-0.1939,-0.1945,-0.192,-0.1929,-0.1927,-0.1927,-0.1922,-0.1919,-0.1916,-0.1954,-0.1955,-0.1955,0,0,-0.1918,-0.192,-0.191,-0.1912,-0.1914,-0.1919,-0.1917,-0.1922,-0.1924,-0.1916,-0.1928,-0.1924,-0.1918,-0.192,-0.192,-0.1897,-0.1906,-0.1896,-0.1881,-0.1876,-0.1873,-0.1871,-0.1863,-0.1861,-0.1894,-0.1894,-0.1894,0,-0.1903,-0.1895,-0.1905,-0.1898,-0.1898,-0.1911,-0.1902,-0.1903,-0.1904,-0.1904,-0.191,-0.1905,-0.1907,-0.1897,-0.1892,-0.1891,-0.189,-0.1896,-0.1873,-0.187,-0.1868,-0.1862,-0.1859,-0.1893,-0.1893,-0.1893,-0.1893,0,-0.1877,-0.1872,-0.1864,-0.1865,-0.1864,-0.1856,-0.1864,-0.1862,-0.1869,-0.1874,-0.1866,-0.187,-0.1869,-0.1867,-0.1873,-0.1858,-0.1862,-0.1871,-0.1883,-0.1864,-0.1858,-0.1855,-0.1891,-0.1892,-0.1892,-0.1893,0,0,-0.1838,-0.1846,-0.1843,-0.1844,-0.1848,-0.1845,-0.1838,-0.1837,-0.1836,-0.1836,-0.1832,-0.1827,-0.1836,-0.1836,-0.1842,-0.1837,-0.182,-0.1847,-0.1847,-0.1842,-0.1806,-0.18,-0.1797,-0.1826,-0.1826,-0.1825,-0.1806,0,-0.1815,-0.1804,-0.1813,-0.18,-0.1797,-0.181,-0.1804,-0.1806,-0.1811,-0.1809,-0.1814,-0.1811,-0.1822,-0.1822,-0.1818,-0.1823,-0.1813,-0.1825,-0.1823,-0.1823,-0.1822,-0.1793,-0.1787,-0.1768,-0.1804,-0.1803,-0.1803,0,-0.1786,-0.1786,-0.1774,-0.178,-0.1779,-0.1773,-0.1774,-0.1772,-0.1775,-0.1779,-0.178,-0.1788,-0.1783,-0.1795,-0.1789,-0.1796,-0.1796,-0.1799,-0.1798,-0.1799,-0.1812,-0.1794,-0.1762,-0.176,-0.1799,-0.1799,-0.18,0,-0.1761,-0.1757,-0.175,-0.1751,-0.1757,-0.1754,-0.1756,-0.176,-0.176,-0.1761,-0.1761,-0.1761,-0.1761,-0.1761,-0.177,-0.1778,-0.1763,-0.1775,-0.1767,-0.1767,-0.1763,-0.1763,-0.1732,-0.1762,-0.1762,-0.1762,-0.1762,0,-0.1734,-0.1726,-0.1739,-0.1734,-0.1726,-0.1736,-0.1728,-0.1732,-0.1736,-0.1733,-0.1744,-0.1741,-0.1753,-0.1751,-0.1758,-0.1753,-0.1752,-0.1756,-0.1758,-0.1755,-0.1755,-0.1755,-0.1757,-0.1761,-0.1762,-0.1762,-0.1762,0,-0.1704,-0.1712,-0.1705,-0.1712,-0.1714,-0.1708,-0.1715,-0.1711,-0.1717,-0.1713,-0.1713,-0.1722,-0.1721,-0.173,-0.173,-0.1735,-0.1726,-0.173,-0.1725,-0.1726,-0.1718,-0.1719,-0.1686,-0.1683,-0.1714,-0.1714,-0.1714,0,-0.1687,-0.1681,-0.1688,-0.1687,-0.1689,-0.1687,-0.1687,-0.1698,-0.1697,-0.1701,-0.1697,-0.1697,-0.1698,-0.1696,-0.1703,-0.1703,-0.1708,-0.1696,-0.1708,-0.1706,-0.1709,-0.1709,-0.1709,-0.1694,-0.1694,-0.1693,-0.1693,0,-0.1656,-0.1661,-0.166,-0.1661,-0.1661,-0.1662,-0.1664,-0.1662,-0.1674,-0.1673,-0.1672,-0.1672,-0.1673,-0.1673,-0.1676,-0.1679,-0.1688,-0.1689,-0.1688,-0.1685,-0.1683,-0.1685,-0.1719,-0.169,-0.169,-0.1691,-0.1691,-0.1691,-0.1633,-0.1629,-0.1633,-0.1633,-0.1635,-0.1637,-0.1635,-0.1641,-0.164,-0.1642,-0.1648,-0.1646,-0.1651,-0.1655,-0.1658,-0.1657,-0.1663,-0.166,-0.1659,-0.1659,-0.1658,-0.1682,-0.1658,-0.1658,-0.1658,-0.1658,-0.1658,0,-0.1603,-0.1607,-0.1606,-0.1609,-0.1609,-0.1617,-0.1621,-0.162,-0.1618,-0.1622,-0.1622,-0.1622,-0.1623,-0.163,-0.1632,-0.163,-0.1634,-0.163,-0.163,-0.1631,-0.1652,-0.1654,-0.1626,-0.1626,-0.1626,-0.1626,-0.1626,-0.1626,-0.1588,-0.1582,-0.1587,-0.1584,-0.1588,-0.1586,-0.1587,-0.159,-0.1593,-0.1592,-0.1593,-0.1597,-0.1603,-0.1605,-0.1606,-0.1609,-0.1609,-0.1604,-0.1607,-0.1627,-0.163,-0.1633,-0.1634,-0.1603,-0.1603,-0.1587,-0.1587,-0.1587]},{"header":{"parameterUnit":"m.s-1","parameterCategory":1,"la1":30.2991,"la2":30.254,"lo1":-89.0895,"lo2":-89.0444,"dy":0.0017,"dx":0.0017,"nx":28,"ny":28,"refTime":"2024-05-07T09:00:00:Z","depth":0,"parameterNumber":3,"parameterNumberName":"V-component_of_WINDS"},"data":[0,0,0,0,0,0,0,0,0,0,0,0,0,0,0,0,0,0,0,0,0,0,0,0,0,0,0,0,0,0,0,0,0,0,0,0,0,0,0,0,0,0,0,0,0,0,0,0,0,0,0,0,0,0,0,0,0,0,5.2516,5.2518,0,5.2649,5.2651,5.2652,5.2627,5.2625,5.2622,5.262,5.275,5.2755,5.2761,0,0,0,0,0,0,0,0,0,0,0,0,0,5.2233,5.2238,5.2516,5.2518,5.2519,5.2649,5.2651,5.2653,5.2627,5.2625,5.2622,5.2619,5.2748,5.2754,5.2761,0,0,0,0,0,0,0,0,0,0,0,0,0,5.236,5.224,5.2516,5.2523,5.2525,5.2649,5.2651,5.2653,5.2628,5.2624,5.2621,5.2618,5.2745,5.2754,5.2762,5.2885,0,0,5.2788,5.2792,0,0,0,0,0,0,0,0,5.2353,5.237,5.252,5.2522,5.2525,5.2618,5.2598,5.2731,5.2629,5.2589,5.262,5.2616,5.2708,5.2719,5.2752,5.2892,5.2897,5.2789,5.2794,5.2798,5.28,0,0,0,0,0,0,0,5.2344,5.2364,5.2568,5.2522,5.2525,5.2517,5.2531,5.2623,5.2666,5.2592,5.259,5.2607,5.2709,5.2744,5.2755,5.2899,5.2788,5.2796,5.2801,5.2805,5.3145,5.3148,0,0,0,0,0,0,5.2334,5.2357,5.2564,5.2572,5.2428,5.2525,5.254,5.2592,5.2665,5.2673,5.261,5.2605,5.2731,5.2745,5.2759,5.2908,5.2797,5.2805,5.281,5.3141,5.3145,5.315,0,0,0,0,0,0,5.2328,5.2353,5.2559,5.2465,5.249,5.2533,5.2591,5.2596,5.2631,5.2679,5.2686,5.2638,5.2729,5.2747,5.2854,5.2912,5.2809,5.2817,5.3136,5.3142,5.3148,5.3207,0,0,0,0,0,0,5.232,5.2351,5.24,5.2466,5.2495,5.2654,5.2595,5.2601,5.2647,5.2642,5.2708,5.2715,5.2728,5.2842,5.2863,5.2922,5.2824,5.3131,5.3139,5.3146,5.32,5.3214,5.3226,0,0,0,0,0,5.231,5.241,5.2402,5.2427,5.2558,5.2658,5.2674,5.2689,5.2652,5.27,5.2731,5.2713,5.2903,5.2853,5.2876,5.2939,5.3127,5.3137,5.3145,5.3194,5.3211,5.3226,0,0,0,0,0,0,5.2347,5.2419,5.2411,5.2536,5.2591,5.2653,5.2715,5.2707,5.2772,5.2764,5.2777,5.2792,5.2901,5.293,5.2874,5.3061,5.3009,5.3023,5.3039,5.3055,5.3068,5.3059,5.2831,0,0,0,0,0,5.237,5.2448,5.2505,5.2609,5.2638,5.2672,5.2716,5.2722,5.2779,5.2801,5.284,5.2893,5.2965,5.3012,5.308,5.3204,5.3217,5.3258,5.3271,5.3282,5.3294,5.336,5.3379,5.3179,5.3179,5.3179,0,0,5.2418,5.2467,5.2514,5.2618,5.2662,5.2739,5.2691,5.2775,5.2832,5.2813,5.2917,5.2947,5.3008,5.3124,5.3176,5.3151,5.3352,5.3293,5.3301,5.3307,5.3371,5.339,5.3407,5.3185,5.3184,5.3183,0,0,5.2545,5.259,5.2682,5.2727,5.2794,5.2816,5.2838,5.2902,5.2922,5.3027,5.3014,5.308,5.3203,5.3247,5.3285,5.3428,5.3413,5.3449,5.3518,5.3582,5.3598,5.3612,5.3662,5.368,5.3461,5.3461,5.3461,0,5.2596,5.2714,5.273,5.2816,5.2861,5.2849,5.2941,5.2983,5.3068,5.3098,5.307,5.3224,5.3264,5.3389,5.3424,5.3456,5.3479,5.3442,5.3595,5.3609,5.3622,5.367,5.3689,5.3465,5.3465,5.3464,5.3464,0,5.2773,5.2855,5.292,5.3006,5.3058,5.3146,5.3173,5.3223,5.3225,5.3249,5.3355,5.3402,5.348,5.351,5.3512,5.3635,5.3618,5.3592,5.354,5.3645,5.369,5.3709,5.3471,5.3469,5.3468,5.3467,0,0,5.2927,5.302,5.3044,5.3082,5.3155,5.3217,5.3304,5.3382,5.3425,5.3483,5.3555,5.3659,5.3636,5.3679,5.3685,5.3742,5.3851,5.3709,5.371,5.3733,5.3988,5.4007,5.4028,5.3842,5.3845,5.3848,5.3983,0,5.3061,5.3217,5.3233,5.3371,5.3446,5.3435,5.351,5.3562,5.3586,5.3652,5.3677,5.3751,5.3715,5.3741,5.3797,5.3826,5.3902,5.3816,5.3906,5.3909,5.3892,5.4052,5.4073,5.4198,5.4001,5.4004,5.4006,0,5.3238,5.3304,5.345,5.3512,5.3544,5.3612,5.3684,5.3747,5.3804,5.3818,5.3867,5.3865,5.3951,5.3896,5.4014,5.3956,5.3993,5.4012,5.4018,5.4026,5.3964,5.4064,5.4238,5.4257,5.4034,5.4032,5.403,0,5.3335,5.346,5.3564,5.3597,5.3672,5.372,5.3752,5.3806,5.3852,5.3914,5.3943,5.4014,5.4052,5.4106,5.4122,5.408,5.4239,5.4185,5.4251,5.4251,5.4285,5.4283,5.4467,5.431,5.431,5.4309,5.4309,0,5.3483,5.3573,5.3609,5.3673,5.3772,5.3789,5.3886,5.3916,5.3964,5.4031,5.4025,5.4088,5.4106,5.4171,5.4184,5.4279,5.4297,5.4309,5.4311,5.4309,5.4308,5.4334,5.4325,5.4314,5.4313,5.4312,5.4311,0,5.3609,5.3637,5.375,5.3812,5.3829,5.39,5.3951,5.4011,5.4034,5.412,5.414,5.4176,5.4253,5.4275,5.4366,5.4374,5.4486,5.448,5.4468,5.4468,5.4532,5.4526,5.4739,5.4768,5.4592,5.4594,5.4595,0,5.3701,5.377,5.384,5.3886,5.3922,5.3995,5.4042,5.406,5.4108,5.4178,5.4229,5.4306,5.4368,5.449,5.4522,5.4591,5.4587,5.4657,5.4597,5.4593,5.4587,5.4583,5.4589,5.4668,5.467,5.4672,5.4673,0,5.3862,5.3872,5.3942,5.4016,5.4072,5.4131,5.4187,5.4224,5.4249,5.4304,5.4383,5.4431,5.4525,5.46,5.467,5.4701,5.4691,5.4692,5.471,5.4709,5.4699,5.4705,5.4498,5.4687,5.4685,5.4684,5.4684,5.4683,5.3974,5.4034,5.4093,5.417,5.4214,5.4267,5.4326,5.4357,5.4425,5.4504,5.451,5.4595,5.4648,5.4742,5.4777,5.4842,5.4821,5.4848,5.4855,5.4862,5.4867,5.4689,5.4855,5.4854,5.4854,5.4854,5.4853,0,5.4134,5.4171,5.4242,5.4321,5.4381,5.4368,5.4429,5.4479,5.4556,5.4608,5.4669,5.4759,5.4832,5.487,5.4941,5.4986,5.4983,5.5004,5.5001,5.5008,5.4882,5.4858,5.5005,5.5005,5.5005,5.5005,5.5005,5.5005,5.4224,5.4326,5.4343,5.4466,5.4502,5.4588,5.4623,5.4671,5.4712,5.4814,5.4875,5.49,5.4946,5.502,5.5085,5.5094,5.512,5.5144,5.5151,5.5032,5.5017,5.5002,5.498,5.515,5.515,5.5271,5.5272,5.5273]}]]